When you browse on this site, cookies collect data to enhance your experience and personalize the content and advertising you see.
Visit our Privacy Policy to learn more. By continuing to use the site, you agree to this use of cookies and data.
  • In Spain
  • List of Countries
  • For 7 days
  • Water Temperature
  • Weather Map
  • Weather Widgets
  • user-avatar
    Login

    Hourly Weather Trydent i Bolzano

    Today, 20 August, Tuesday

    Time Temperature Precipitation Wind Pressure Humidity
    00:00 +22°C° 0.2 mm 1 mps 738 mmHg 94%
    01:00 +19°C° 0.2 mm 0 mps 738 mmHg 94%
    02:00 +19°C° 0.1 mm 0 mps 738 mmHg 94%
    03:00 +19°C° 0.1 mm 0 mps 738 mmHg 94%
    04:00 +19°C° 0.1 mm 0 mps 738 mmHg 94%
    05:00 +20°C° 0.1 mm 0 mps 738 mmHg 94%
    06:00 +20°C° 0.1 mm 0 mps 738 mmHg 93%
    07:00 +21°C° 0.1 mm 0 mps 738 mmHg 93%
    08:00 +23°C° 0.3 mm 0 mps 738 mmHg 87%
    09:00 +26°C° 0.3 mm 1 mps 738 mmHg 82%
    10:00 +28°C° 0.3 mm 1 mps 738 mmHg 76%
    11:00 +28°C° 0.7 mm 1 mps 738 mmHg 74%
    12:00 +29°C° 0.7 mm 2 mps 738 mmHg 73%
    13:00 +30°C° 0.7 mm 2 mps 737 mmHg 71%
    14:00 +29°C° 0.9 mm 2 mps 737 mmHg 73%
    15:00 +29°C° 0.9 mm 2 mps 737 mmHg 74%
    16:00 +29°C° 0.9 mm 2 mps 737 mmHg 75%
    17:00 +28°C° 0.5 mm 1 mps 737 mmHg 79%
    18:00 +26°C° 0.5 mm 1 mps 738 mmHg 84%
    19:00 +24°C° 0.5 mm 1 mps 738 mmHg 89%
    20:00 +24°C° 0.4 mm 1 mps 738 mmHg 89%
    21:00 +23°C° 0.4 mm 1 mps 738 mmHg 90%
    22:00 +22°C° 0.4 mm 1 mps 739 mmHg 90%
    23:00 +22°C° 0.4 mm 1 mps 739 mmHg 90%

    Tomorrow, 21 August, Wednesday

    Time Temperature Precipitation Wind Pressure Humidity
    00:00 +21°C° 0.4 mm 1 mps 739 mmHg 91%
    01:00 +21°C° 0.4 mm 1 mps 739 mmHg 91%
    02:00 +21°C° 0.4 mm 1 mps 739 mmHg 92%
    03:00 +19°C° 0.4 mm 2 mps 740 mmHg 93%
    04:00 +18°C° 0.4 mm 2 mps 740 mmHg 94%
    05:00 +19°C° 0.2 mm 2 mps 740 mmHg 93%
    06:00 +19°C° 0.2 mm 2 mps 740 mmHg 92%
    07:00 +19°C° 0.2 mm 2 mps 740 mmHg 92%
    08:00 +21°C° 0 mm 2 mps 740 mmHg 82%
    09:00 +25°C° 0 mm 1 mps 740 mmHg 72%
    10:00 +27°C° 0 mm 1 mps 740 mmHg 63%
    11:00 +28°C° 0.2 mm 1 mps 740 mmHg 61%
    12:00 +29°C° 0.2 mm 1 mps 740 mmHg 59%
    13:00 +30°C° 0.2 mm 1 mps 740 mmHg 57%
    14:00 +30°C° 0.4 mm 1 mps 739 mmHg 58%
    15:00 +30°C° 0.4 mm 1 mps 739 mmHg 60%
    16:00 +29°C° 0.4 mm 1 mps 739 mmHg 62%
    17:00 +27°C° 0.6 mm 1 mps 739 mmHg 71%
    18:00 +26°C° 0.6 mm 1 mps 739 mmHg 79%
    19:00 +22°C° 0.6 mm 0 mps 739 mmHg 87%
    20:00 +23°C° 0.3 mm 1 mps 740 mmHg 88%
    21:00 +22°C° 0.3 mm 1 mps 740 mmHg 89%
    22:00 +22°C° 0.3 mm 1 mps 740 mmHg 90%
    23:00 +21°C° 0 mm 1 mps 740 mmHg 89%

    Day after tomorrow, 22 August, Thursday

    Time Temperature Precipitation Wind Pressure Humidity
    00:00 +21°C° 0 mm 1 mps 740 mmHg 89%
    01:00 +21°C° 0 mm 1 mps 740 mmHg 89%
    02:00 +21°C° 0 mm 1 mps 740 mmHg 89%
    03:00 +20°C° 0 mm 1 mps 739 mmHg 89%
    04:00 +20°C° 0 mm 1 mps 739 mmHg 89%
    05:00 +21°C° 0 mm 1 mps 740 mmHg 87%
    06:00 +22°C° 0 mm 1 mps 740 mmHg 85%
    07:00 +23°C° 0 mm 1 mps 740 mmHg 84%
    08:00 +25°C° 0 mm 1 mps 740 mmHg 74%
    09:00 +28°C° 0 mm 1 mps 740 mmHg 64%
    10:00 +30°C° 0 mm 1 mps 740 mmHg 54%
    11:00 +31°C° 0.1 mm 1 mps 740 mmHg 51%
    12:00 +31°C° 0.1 mm 1 mps 740 mmHg 48%
    13:00 +32°C° 0.1 mm 1 mps 740 mmHg 46%
    14:00 +32°C° 0.4 mm 1 mps 739 mmHg 48%
    15:00 +31°C° 0.4 mm 1 mps 739 mmHg 51%
    16:00 +31°C° 0.4 mm 1 mps 739 mmHg 53%
    17:00 +29°C° 0.3 mm 1 mps 739 mmHg 62%
    18:00 +27°C° 0.3 mm 1 mps 739 mmHg 71%
    19:00 +25°C° 0.3 mm 1 mps 740 mmHg 79%
    20:00 +24°C° 0.5 mm 1 mps 740 mmHg 82%
    21:00 +23°C° 0.5 mm 1 mps 740 mmHg 85%
    22:00 +22°C° 0.5 mm 1 mps 741 mmHg 87%
    23:00 +22°C° 0.1 mm 1 mps 741 mmHg 87%

    23 August, Friday

    Time Temperature Precipitation Wind Pressure Humidity
    00:00 +21°C° 0.1 mm 1 mps 741 mmHg 87%
    01:00 +21°C° 0.1 mm 1 mps 740 mmHg 87%
    02:00 +21°C° 0 mm 1 mps 740 mmHg 86%
    03:00 +21°C° 0 mm 1 mps 740 mmHg 86%
    04:00 +20°C° 0 mm 1 mps 740 mmHg 86%
    05:00 +21°C° 0 mm 1 mps 740 mmHg 84%
    06:00 +22°C° 0 mm 1 mps 740 mmHg 83%
    07:00 +23°C° 0 mm 1 mps 740 mmHg 81%
    08:00 +25°C° 0 mm 1 mps 740 mmHg 73%
    09:00 +27°C° 0 mm 1 mps 740 mmHg 64%
    10:00 +30°C° 0 mm 1 mps 741 mmHg 56%
    11:00 +30°C° 0.3 mm 1 mps 740 mmHg 56%
    12:00 +30°C° 0.3 mm 1 mps 740 mmHg 56%
    13:00 +31°C° 0.3 mm 1 mps 740 mmHg 56%
    14:00 +30°C° 0.5 mm 1 mps 740 mmHg 62%
    15:00 +29°C° 0.5 mm 1 mps 739 mmHg 67%
    16:00 +28°C° 0.5 mm 1 mps 739 mmHg 73%
    17:00 +27°C° 0.3 mm 1 mps 739 mmHg 77%
    18:00 +25°C° 0.3 mm 1 mps 739 mmHg 80%
    19:00 +22°C° 0.3 mm 0 mps 739 mmHg 84%
    20:00 +23°C° 0.1 mm 1 mps 739 mmHg 84%
    21:00 +23°C° 0.1 mm 1 mps 740 mmHg 84%
    22:00 +22°C° 0.1 mm 1 mps 740 mmHg 84%
    23:00 +22°C° 0 mm 1 mps 740 mmHg 84%

    24 August, Saturday

    Time Temperature Precipitation Wind Pressure Humidity
    00:00 +21°C° 0 mm 1 mps 740 mmHg 84%
    01:00 +21°C° 0 mm 1 mps 740 mmHg 84%
    02:00 +21°C° 0 mm 1 mps 739 mmHg 84%
    03:00 +20°C° 0 mm 1 mps 739 mmHg 84%
    04:00 +20°C° 0 mm 1 mps 739 mmHg 84%
    05:00 +21°C° 0 mm 1 mps 739 mmHg 83%
    06:00 +22°C° 0 mm 1 mps 739 mmHg 81%
    07:00 +23°C° 0 mm 1 mps 739 mmHg 79%
    08:00 +26°C° 0 mm 1 mps 739 mmHg 70%
    09:00 +28°C° 0 mm 1 mps 739 mmHg 61%
    10:00 +30°C° 0 mm 1 mps 739 mmHg 52%
    11:00 +31°C° 0.3 mm 1 mps 739 mmHg 52%
    12:00 +31°C° 0.3 mm 1 mps 739 mmHg 52%
    13:00 +31°C° 0.3 mm 2 mps 738 mmHg 52%
    14:00 +31°C° 0.5 mm 1 mps 738 mmHg 54%
    15:00 +31°C° 0.5 mm 1 mps 738 mmHg 57%
    16:00 +30°C° 0.5 mm 1 mps 738 mmHg 60%
    17:00 +28°C° 0.5 mm 1 mps 738 mmHg 67%
    18:00 +26°C° 0.5 mm 1 mps 738 mmHg 74%
    19:00 +24°C° 0.5 mm 1 mps 738 mmHg 82%
    20:00 +23°C° 0.5 mm 1 mps 738 mmHg 83%
    21:00 +23°C° 0.5 mm 1 mps 738 mmHg 85%
    22:00 +22°C° 0.5 mm 1 mps 739 mmHg 87%
    23:00 +21°C° 0 mm 1 mps 739 mmHg 87%

    25 August, Sunday

    Time Temperature Precipitation Wind Pressure Humidity
    00:00 +21°C° 0 mm 1 mps 738 mmHg 87%
    01:00 +21°C° 0 mm 1 mps 738 mmHg 87%
    02:00 +20°C° 0 mm 1 mps 738 mmHg 87%
    03:00 +20°C° 0 mm 1 mps 738 mmHg 87%
    04:00 +20°C° 0 mm 1 mps 738 mmHg 87%
    05:00 +21°C° 0 mm 1 mps 738 mmHg 85%
    06:00 +22°C° 0 mm 1 mps 738 mmHg 84%
    07:00 +23°C° 0 mm 1 mps 738 mmHg 82%
    08:00 +25°C° 0 mm 1 mps 738 mmHg 74%
    09:00 +28°C° 0 mm 1 mps 738 mmHg 65%
    10:00 +30°C° 0 mm 1 mps 738 mmHg 57%
    11:00 +30°C° 0.3 mm 1 mps 738 mmHg 56%
    12:00 +31°C° 0.3 mm 1 mps 737 mmHg 54%
    13:00 +31°C° 0.3 mm 2 mps 737 mmHg 53%
    14:00 +31°C° 0.6 mm 2 mps 737 mmHg 55%
    15:00 +31°C° 0.6 mm 2 mps 737 mmHg 56%
    16:00 +31°C° 0.6 mm 1 mps 737 mmHg 58%
    17:00 +28°C° 0.5 mm 1 mps 737 mmHg 67%
    18:00 +26°C° 0.5 mm 1 mps 737 mmHg 75%
    19:00 +22°C° 0.5 mm 0 mps 737 mmHg 84%
    20:00 +22°C° 0.5 mm 0 mps 737 mmHg 85%
    21:00 +23°C° 0.5 mm 1 mps 737 mmHg 86%
    22:00 +23°C° 0.5 mm 1 mps 738 mmHg 87%
    23:00 +23°C° 0.1 mm 1 mps 737 mmHg 87%
    Show more